Location: Drummondville
(45.8830°N, 72.4830°W)
Time: 18:22:32
(UTC-05:00)

Vanguard 1 Rocket - Visible Passes

Search period start: 18 November 2017 00:00
Search period end: 28 November 2017 00:00
Orbit: 655 x 4222 km, 34.3° (Epoch: 17 November)

Date Brightness Start Highest point End Pass type
(mag) Time Alt. Az. Time Alt. Az. Time Alt. Az.
18 Nov 10.7 00:48:29 32° ESE 00:48:29 32° ESE 00:55:07 10° E visible
18 Nov 10.0 03:05:46 52° SSW 03:07:03 53° SSW 03:20:08 10° SE visible
18 Nov 10.3 05:23:04 16° W 05:32:50 26° SW 05:41:29 10° S visible
18 Nov 11.2 20:33:54 10° SSW 20:43:00 25° S 20:43:00 25° S visible
18 Nov 11.3 22:58:41 10° SW 23:41:20 15° E 23:43:06 10° E visible
19 Nov 10.2 01:58:37 51° SSE 01:58:37 51° SSE 02:09:27 10° ESE visible
19 Nov 10.1 04:15:55 32° WSW 04:21:37 38° SW 04:32:44 10° SSE visible
19 Nov 11.2 19:25:08 10° S 19:36:04 22° SE 19:36:04 22° SE visible
19 Nov 11.3 21:46:15 10° SW 22:34:12 - E 21:53:22 25° SSW visible
20 Nov 10.8 00:51:30 32° ESE 00:51:30 32° ESE 00:58:07 10° ESE visible
20 Nov 10.1 03:08:47 49° SSW 03:09:28 50° SSW 03:22:55 10° SE visible
20 Nov 10.5 05:26:05 15° W 05:34:53 22° SW 05:43:19 10° S visible
20 Nov 11.4 18:20:49 10° SE 18:28:32 13° ESE 18:29:07 13° ESE visible
20 Nov 11.0 20:35:07 10° SSW 20:46:26 31° S 20:46:26 31° S visible
20 Nov 11.3 23:00:50 10° WSW 23:44:23 15° E 23:46:05 10° E visible
21 Nov 10.3 02:01:41 48° SSE 02:01:41 48° SSE 02:12:21 10° ESE visible
21 Nov 10.3 04:18:59 31° WSW 04:23:48 34° SW 04:35:07 10° SSE visible
21 Nov 11.0 19:25:33 10° S 19:39:29 27° SE 19:39:29 27° SE visible
21 Nov 11.1 21:48:11 10° SW 22:37:19 - E 21:56:47 29° SSW visible
22 Nov 10.8 00:54:37 31° ESE 00:54:37 31° ESE 01:01:03 10° ESE visible
22 Nov 10.2 03:11:54 46° SSW 03:11:54 46° SSW 03:25:35 10° SE visible
22 Nov 10.7 05:29:13 13° W 05:36:47 18° SW 05:44:33 10° SSW visible
22 Nov 11.2 18:18:33 10° SSE 18:30:05 17° SE 18:32:31 17° ESE visible
22 Nov 10.9 20:36:45 10° SSW 20:49:50 37° S 20:49:50 37° S visible
22 Nov 11.4 23:03:09 10° WSW 23:47:33 14° ESE 23:49:00 10° E visible
23 Nov 10.4 02:04:52 45° SSE 02:04:52 45° SSE 02:15:09 10° SE visible
23 Nov 10.5 04:22:10 28° WSW 04:25:49 30° SW 04:37:12 10° S visible
23 Nov 10.9 19:26:38 10° SSW 19:42:51 33° SE 19:42:51 33° SE visible
23 Nov 11.0 21:50:22 10° SW 22:40:32 - E 22:00:09 34° SW visible
24 Nov 10.9 00:57:50 29° ESE 00:57:50 29° ESE 01:03:54 10° ESE visible
24 Nov 10.3 03:15:09 41° SSW 03:15:09 41° SSW 03:28:03 10° SSE visible
24 Nov 10.9 05:32:27 11° W 05:38:34 13° WSW 05:44:41 10° SW visible
24 Nov 11.1 18:18:21 10° S 18:31:38 22° SE 18:35:51 21° ESE visible
24 Nov 10.7 20:38:41 10° SW 20:53:09 43° S 20:53:09 43° S visible
24 Nov 11.4 23:05:36 10° WSW 23:50:50 13° ESE 23:51:51 10° ESE visible
25 Nov 10.5 02:08:08 41° SSE 02:08:08 41° SSE 02:17:48 10° SE visible
25 Nov 10.7 04:25:27 25° WSW 04:27:41 25° SW 04:38:54 10° S visible
25 Nov 11.3 17:15:15 10° SE 17:20:12 11° ESE 17:25:37 10° ESE visible
25 Nov 10.7 19:28:11 10° SSW 19:45:43 38° SE 19:46:08 38° SE visible
25 Nov 10.9 21:52:45 10° WSW 22:03:25 37° SW 22:03:25 37° SW visible
26 Nov 11.0 01:01:09 26° SE 01:01:09 26° SE 01:06:39 10° ESE visible
26 Nov 10.5 03:18:28 36° SSW 03:18:28 36° SSW 03:30:15 10° SSE visible
26 Nov 10.9 18:19:09 10° S 18:33:16 27° SE 18:39:04 24° ESE visible
26 Nov 10.6 20:40:54 10° SW 20:56:22 48° S 20:56:22 48° S visible
26 Nov 11.4 23:08:11 10° WSW 23:54:11 11° ESE 23:54:38 10° ESE visible
27 Nov 10.6 02:11:29 36° SSE 02:11:29 36° SSE 02:20:16 10° SE visible
27 Nov 10.8 04:28:48 21° SW 04:29:25 21° SW 04:40:04 10° SSW visible
27 Nov 11.2 17:12:45 10° SSE 17:21:44 16° ESE 17:31:59 11° E visible
27 Nov 10.6 19:30:07 10° SSW 19:47:36 43° SE 19:49:16 42° SE visible
27 Nov 10.9 21:55:17 10° WSW 22:06:34 40° SW 22:06:34 40° SW visible
